Regional Weather Roundup
Issued by NWS

Home | Current Version | Previous Version | Text Only | Print | Product List | Glossary Off
Versions: 1 2 3 4 5 6 7 8 9 10 11 12 13 14 15 16 17 18 19 20 21 22 23 24 25 26 27 28 29 30 31 32 33 34 35 36 37 38 39 40 41 42 43 44 45 46 47 48 49 50

000
ASUS43 KTOP 252359
RWRKS

WEATHER ROUNDUP FOR KANSAS
NATIONAL WEATHER SERVICE GOODLAND KS
700 PM CDT SUN SEP 25 2016

NOTE:  "FAIR" INDICATES FEW OR NO CLOUDS BELOW 12,000 FEET WITH NO
SIGNIFICANT WEATHER AND/OR OBSTRUCTIONS TO VISIBILITY.

KSZ001>006-013>018-027>032-041>047-260100-
NORTHWEST KANSAS

CITY           SKY/WX    TMP DP  RH WIND       PRES   REMARKS
GOODLAND       CLEAR     66  32  28 N17G24    30.34R
6HR MIN TEMP:  66; 6HR MAX TEMP:  72;

HAYS           CLEAR     70  36  28 N12       30.24S
HILL CITY      CLEAR     69  32  25 N8        30.27R
6HR MIN TEMP:  69; 6HR MAX TEMP:  75; 6HR PCP: TRACE;

RUSSELL        CLEAR     68  38  33 MISG      30.22R
6HR MIN TEMP:  68; 6HR MAX TEMP:  75; 6HR PCP: TRACE;

$$

KSZ061>065-074>080-084>089-260100-
SOUTHWEST KANSAS

CITY           SKY/WX    TMP DP  RH WIND       PRES   REMARKS
DODGE CITY     CLEAR     71  36  27 N10       30.26R
6HR MIN TEMP:  70; 6HR MAX TEMP:  78; 6HR PCP: TRACE;

ELKHART          N/A     71  34  25 N10         N/A
GARDEN CITY    CLEAR     71  33  24 N15       30.28R
6HR MIN TEMP:  71; 6HR MAX TEMP:  76;

GREAT BEND     CLEAR     72  43  35 N10       30.23R
LIBERAL        CLEAR     73  34  23 NE10      30.29R
$$

KSZ066>073-081>083-090>101-260100-
SOUTHEAST KANSAS

CITY           SKY/WX    TMP DP  RH WIND       PRES   REMARKS
CHANUTE        CLOUDY    63  59  87 NW5       30.17R
6HR MIN TEMP:  61; 6HR MAX TEMP:  64; 6HR PCP:  0.13;

COFFEYVILLE    CLOUDY    62  58  86 NW10      30.16R
6HR MIN TEMP:  61; 6HR MAX TEMP:  71; 6HR PCP:  0.19;

HUTCHINSON     MOCLDY    71  51  49 N3        30.21R
6HR MIN TEMP:  66; 6HR MAX TEMP:  74;

MEDICINE LODGE   N/A     69  53  56 CALM        N/A
NEWTON         CLOUDY   N/A N/A N/A N7        30.20S
PARSONS        CLOUDY    62  58  86 N5        30.18R
6HR MIN TEMP:  61; 6HR MAX TEMP:  71; 6HR PCP:  0.27;

WICHITA INTL   CLOUDY    68  52  56 N7        30.19R
6HR MIN TEMP:  66; 6HR MAX TEMP:  69;

WICHITA JABRA  CLOUDY    65  58  78 N3        30.18S
6HR MIN TEMP:  64; 6HR MAX TEMP:  68;

WINFIELD       MOCLDY    64  56  75 N6        30.20R
6HR MIN TEMP:  63; 6HR MAX TEMP:  67;

$$

KSZ007>012-019>026-033>040-048>060-102>105-260100-
NORTHEAST KANSAS

CITY           SKY/WX    TMP DP  RH WIND       PRES   REMARKS
CONCORDIA      CLEAR     69  43  38 NW8       30.20R
6HR MIN TEMP:  69; 6HR MAX TEMP:  75;

EMPORIA        MOCLDY    65  58  78 CALM      30.17R
6HR MIN TEMP:  63; 6HR MAX TEMP:  67;

LAWRENCE       CLOUDY    64  59  83 W3        30.15R
6HR MIN TEMP:  62; 6HR MAX TEMP:  66; 6HR PCP: TRACE;

MANHATTAN      MOCLDY    72  52  49 CALM      30.16R
6HR MIN TEMP:  67; 6HR MAX TEMP:  75;

OLATHE IND     MOCLDY    63  57  81 NW5       30.15S
6HR MIN TEMP:  60; 6HR MAX TEMP:  64; 6HR PCP: TRACE;

OLATHE EXE     CLOUDY    63  56  78 NW5       30.14S
6HR MIN TEMP:  60; 6HR MAX TEMP:  63; 6HR PCP:  0.01;

SALINA         CLEAR     71  47  42 N9        30.20R
6HR MIN TEMP:  69; 6HR MAX TEMP:  76;

TOPEKA BILLARD CLOUDY    67  58  72 CALM      30.15R HAZE
6HR MIN TEMP:  64; 6HR MAX TEMP:  69;

TOPEKA FORBES  MOCLDY    67  58  72 SW3       30.16R
6HR MIN TEMP:  65; 6HR MAX TEMP:  68;

$$




USA.gov is the U.S. government's official web portal to all federal, state and local government web resources and services.